Showing default

SALSAT, 46495

Orbit data source: Space-Track

SALSAT, 46495 is a payload satellite owned by TUB (DE) in SSO that was launched on Mon, 28 Sep 2020 UTC via a SOYUZ-2-1B launch vehicle from the Plesetsk Missile And Space Complex (PKMTR). Payload-class satellites include a variety of spacecraft equipped with specific instruments for various scientific and technological missions. These include communications satellites like Starlink; space stations such as the ISS; scientific satellites like the Hubble; Earth observation satellites from companies like Planet Labs, Umbra, and HawkEye 360; GPS; miniature CubeSats for education and research; and military/defense satellites.

Loading next visibility...
Identifier
46495, 2020-068K
Orbit
SSO
Country
Flag of DEDE / GER
Related business
Manufacturer
TUB
Mission
Operational Amateur Sigint
Bus & Motor
TUBIX10, Unknown motor
Mass
12 kg wet, 12 kg dry
Launch date (UTC)
2020-09-28 (5 years ago)
Launch vehicle
SOYUZ-2-1B
Launch site
Plesetsk Missile And Space Complex (PKMTR)
Object type
Payload
Rocket body
Debris
Shape & HBR
Box, 1.0 m
Radar Cross Section
0.086 m², Medium (>0.1 m² and < 1m²)

Expand to show TLE details & history
Last TLE update: 5 hours ago

TLE from 5 hours ago
0 SALSAT
1 46495U 20068K   25355.51276966  .00006998  00000-0  27118-3 0  9990
2 46495  97.8784 343.2587 0009690 194.9592 165.1360 15.26459905288228
Epoch: 2025-12-21T12:18Z
TLE epoch observation values (Epoch: 2025-12-21T12:18:23.298Z)
Latitude
-0.00004°
Longitude
68.33748°
Altitude
495.921 km
Speed
7.613 km/s
True Right ascension
22h 53m 02s
True Declination
0° 00' 00"
Sunlit
Object was in daylight at epoch
Visualization orbit readout
Latitude
Unknown
Longitude
Unknown
Altitude
Unknown
Speed
Unknown
Apparent Right ascension
Unknown
Apparent Declination
Unknown
Sunlit
N/A
Visualization observer readout
Local Sidereal Time
16:19:09
Azimuth
Unknown
Elevation
Unknown
Doppler factor
Unknown
Orbital elements
Apogee altitude
490.032 km
Perigee altitude
476.734 km
Semi-major axis
6,861.52 km
Eccentricity
0.00097
Inclination
97.8784°
RAAN
343.2587°
Arg. of periapsis
194.9592°
True anomaly
165.16445°
Mean anomaly
165.136°
Eccentric anomaly
165.15023°
Mean motion
3.81867 °/min
Orbital period
94.27 mins
BSTAR
0.00027118
Loading maneuver chart data...
Computing Atmospheric mass density...
Loading historical data...
Loading historical data...
Loading historical data...
Loading historical data...
Loading historical data...
Loading historical data...
Loading historical data...

Documentation

Showing up to 5 results
|